Weather in Paralia Katerinis

Greece     40°16′00″N   22°34′59″E
temp.,
°C
wind,
m/s
gust,
m/s
humid.,
%
clouds,
%
prec.,
mm/h
press.,
hPa
HPBL,
m
13 may, thu
thu1300:00+14ssw117833 0.0 100812
03:00+13w21740 0.0 100812
06:00+13w22570 0.0 100812
09:00+18ne21530 0.0 1008242
12:00+21e43520 0.0 1008681
15:00+22ese655120 0.0 1007633
18:00+22se55526 0.0 1006426
21:00+16ssw22765 0.0 100814
14 may, fri
fri1400:00+15w225916 0.0 100916
03:00+15w22570 0.0 100919
06:00+14w226013 0.0 101020
09:00+19ne11500 0.0 1011343
12:00+21e42471 0.0 1011827
15:00+24ese534136 0.0 1011792
18:00+23se454598 0.0 1010628
21:00+18ssw226077 0.0 101018
15 may, sat
sat1500:00+16w116186 0.0 101115
03:00+15w22583 0.0 101117
06:00+14w2242100 0.0 101117
09:00+18nne2151100 0.0 1011221
12:00+20w2348100 0.1 1011838
15:00+17ne1268100 0.9 1011653
18:00+15nne118193 0.9 1010130
21:00+13nne00865 1.0 100915
16 may, sun
sun1600:00+12w22795 0.0 101017
03:00+12wsw22775 0.0 100918
06:00+11w22760 0.0 100916
09:00+17ne21620 0.0 1010297
12:00+20e315418 0.0 1009732
15:00+22ese43485 0.0 1008677
18:00+22se22485 0.0 1007376
21:00+18wsw225833 0.0 100715
17 may, mon
mon1700:00+17w325243 0.0 100923
03:00+16w32535 0.0 100923
06:00+15w22544 0.0 100913
09:00+20ene21525 0.0 1010247
12:00+23ese43471 0.0 1009620
15:00+24ese544851 0.0 1009489
18:00+23se455547 0.0 1008297
21:00+18s227568 0.0 100918